Terug naar catalogus

STARLINK-2745

ActiefCommunicatieVLEO
NORAD 48671·PAYLOAD·🇺🇸 United States

Gelanceerd May 26, 2021 vanaf Cape Canaveral Space Force Station

Loading…

Volgende Passages (komende 24 uur)

TLE

VersSource: CelesTrak SupGP

Epoch: Sep 14, 2026, 21:05 UTC

1 48671C 21044AK  26257.87895833 -.00016123  00000+0 -51846-3 0  2578
2 48671  53.1580 315.0960 0001273  85.9080 328.0835 15.31709981    11

Volg STARLINK-2745 in realtime met AllMySat

Download on the App Store